Orbital Elements at Epoch 2459000.5 (2020-May-31.0) TDB
Reference: JPL 19 (heliocentric ecliptic J2000)
Element | Value | Uncertainty (1-sigma) | Units |
e | .1990454918196066 | 3.5935e-08 | |
a | 2.640706173060173 | 1.5222e-08 | au |
q | 2.115085514092339 | 9.3866e-08 | au |
i | 18.01048630906022 | 4.5807e-06 | deg |
node | 163.7283030394435 | 1.5209e-05 | deg |
peri | 155.9964551793412 | 1.9715e-05 | deg |
M | 178.1807208343109 | 1.4745e-05 | deg |
tp | 2458224.723251784870 (2018-Apr-16.22325178) | 6.1358e-05 | TDB |
period | 1567.395327899404 4.29 | 1.3552e-05 3.71e-08 | d yr |
n | .2296804090149137 | 1.9859e-09 | deg/d |
Q | 3.166326832028006 | 1.8252e-08 | au |
|
| | Orbit Determination Parameters
Additional Information
|